GW4501 Weather Reports


time (UTC)temp
C
wind
direction
speed
KPH
gust
KPH
rain 1hr
cm
rain 24hr
cm
rain mn
cm
humidity
%
barometer
mb
20260504014504 13 226 0.0 0.0 0.00 0.00 0.00 57 1015.7
20260504014002 13 230 0.0 1.6 0.00 0.00 0.00 56 1015.5
20260504013500 13 226 1.6 1.6 0.00 0.00 0.00 56 1015.4
20260504012955 13 229 0.0 0.0 0.00 0.00 0.00 55 1015.0
20260504012454 13 225 0.0 0.0 0.00 0.00 0.00 56 1015.4
20260504011952 13 226 0.0 0.0 0.00 0.00 0.00 55 1015.5
20260504011447 13 230 0.0 0.0 0.00 0.00 0.00 54 1015.2
20260504010944 13 232 0.0 1.6 0.00 0.00 0.00 54 1015.2
20260504010440 14 223 0.0 0.0 0.00 0.00 0.00 53 1015.4
20260504005936 14 230 0.0 0.0 0.00 0.00 0.00 52 1015.5
20260504005433 14 211 0.0 1.6 0.00 0.00 0.00 52 1015.6
20260504004930 14 230 0.0 0.0 0.00 0.00 0.00 52 1015.4
20260504004428 15 222 0.0 0.0 0.00 0.00 0.00 51 1015.5
20260504003925 15 220 0.0 0.0 0.00 0.00 0.00 51 1015.4
20260504003421 15 220 0.0 0.0 0.00 0.00 0.00 51 1015.6
20260504002918 15 225 0.0 0.0 0.00 0.00 0.00 51 1015.4
20260504002415 15 219 0.0 0.0 0.00 0.00 0.00 50 1015.5
20260504001912 15 226 0.0 0.0 0.00 0.00 0.00 50 1015.7
20260504001410 15 224 0.0 0.0 0.00 0.00 0.00 49 1015.6
20260504000906 15 228 0.0 0.0 0.00 0.00 0.00 47 1015.7
20260504000404 16 228 0.0 0.0 0.00 0.00 0.00 47 1015.7
20260503235901 16 228 0.0 0.0 0.00 0.00 0.00 46 1015.8
20260503235359 16 218 0.0 0.0 0.00 0.00 0.00 45 1016.0
20260503234856 16 226 0.0 0.0 0.00 0.00 0.00 44 1016.0
20260503234354 16 224 1.6 1.6 0.00 0.00 0.00 45 1015.9
20260503233851 16 230 0.0 1.6 0.00 0.00 0.00 43 1016.1
20260503233347 16 230 0.0 0.0 0.00 0.00 0.00 46 1016.2
20260503232843 17 226 0.0 0.0 0.00 0.00 0.00 42 1016.1
20260503232341 17 239 4.8 4.8 0.00 0.00 0.00 42 1016.0
20260503231839 17 234 1.6 1.6 0.00 0.00 0.00 43 1016.1
20260503231335 17 235 0.0 0.0 0.00 0.00 0.00 43 1016.1
20260503230831 17 228 0.0 0.0 0.00 0.00 0.00 40 1016.1
20260503230328 17 213 4.8 4.8 0.00 0.00 0.00 39 1016.1
20260503225826 17 235 1.6 1.6 0.00 0.00 0.00 40 1016.1
20260503225322 17 255 3.2 3.2 0.00 0.00 0.00 38 1016.2
20260503224818 17 239 1.6 1.6 0.00 0.00 0.00 38 1016.3
20260503224315 17 243 3.2 4.8 0.00 0.00 0.00 39 1016.4
20260503223813 17 241 1.6 1.6 0.00 0.00 0.00 38 1016.5
20260503223311 17 206 3.2 8.0 0.00 0.00 0.00 37 1016.8
20260503222806 17 206 3.2 3.2 0.00 0.00 0.00 37 1016.8
20260503222305 17 176 3.2 4.8 0.00 0.00 0.00 38 1017.0
20260503221802 17 231 1.6 3.2 0.00 0.00 0.00 36 1016.9
20260503221300 17 242 1.6 3.2 0.00 0.00 0.00 36 1016.9
20260503220756 17 247 4.8 4.8 0.00 0.00 0.00 35 1016.9
20260503220254 17 241 1.6 1.6 0.00 0.00 0.00 41 1017.0
20260503215750 17 207 1.6 1.6 0.00 0.00 0.00 38 1016.9
20260503215247 17 244 1.6 3.2 0.00 0.00 0.00 37 1017.0
20260503214745 17 236 3.2 3.2 0.00 0.00 0.00 38 1017.2
20260503214242 17 221 1.6 3.2 0.00 0.00 0.00 37 1017.1
20260503213740 17 227 3.2 4.8 0.00 0.00 0.00 39 1017.1
20260503213237 18 241 4.8 8.0 0.00 0.00 0.00 38 1017.1
20260503212734 17 209 0.0 1.6 0.00 0.00 0.00 43 1017.1
20260503212232 17 236 3.2 3.2 0.00 0.00 0.00 39 1017.4
20260503211729 17 234 0.0 1.6 0.00 0.00 0.00 41 1017.4
20260503211225 17 228 1.6 1.6 0.00 0.00 0.00 44 1017.4
20260503210720 17 260 1.6 1.6 0.00 0.00 0.00 43 1017.5
20260503210218 18 223 3.2 3.2 0.00 0.00 0.00 42 1017.5
20260503205713 18 231 1.6 1.6 0.00 0.00 0.00 42 1017.5
20260503205210 18 268 1.6 3.2 0.00 0.00 0.00 40 1017.4
20260503204706 17 242 0.0 0.0 0.00 0.00 0.00 42 1017.8
20260503204204 18 282 4.8 8.0 0.00 0.00 0.00 39 1017.8
20260503203701 18 220 3.2 3.2 0.00 0.00 0.00 39 1017.8
20260503203159 18 236 0.0 0.0 0.00 0.00 0.00 43 1018.0
20260503202655 18 235 1.6 3.2 0.00 0.00 0.00 44 1018.1
20260503202154 18 238 1.6 3.2 0.00 0.00 0.00 40 1018.2
20260503201652 18 181 1.6 1.6 0.00 0.00 0.00 40 1018.3
20260503201149 18 226 3.2 4.8 0.00 0.00 0.00 42 1018.4
20260503200644 18 209 1.6 3.2 0.00 0.00 0.00 41 1018.6
20260503200141 18 240 1.6 3.2 0.00 0.00 0.00 40 1018.5
20260503195638 17 237 1.6 1.6 0.00 0.00 0.00 41 1018.5
20260503195135 17 255 1.6 1.6 0.00 0.00 0.00 43 1018.6
20260503194632 17 208 4.8 8.0 0.00 0.00 0.00 43 1018.9
20260503194127 17 215 1.6 3.2 0.00 0.00 0.00 41 1019.0
20260503193624 17 237 3.2 4.8 0.00 0.00 0.00 46 1019.1
20260503193120 17 232 4.8 4.8 0.00 0.00 0.00 44 1019.0
20260503192616 17 231 1.6 4.8 0.00 0.00 0.00 46 1019.1
20260503192112 16 239 1.6 1.6 0.00 0.00 0.00 45 1019.0
20260503191609 17 221 3.2 4.8 0.00 0.00 0.00 43 1019.2
20260503191105 17 255 6.4 8.0 0.00 0.00 0.00 45 1019.2
20260503190603 17 210 1.6 1.6 0.00 0.00 0.00 43 1019.5
20260503190100 17 224 0.0 1.6 0.00 0.00 0.00 47 1019.6
20260503185556 16 237 3.2 4.8 0.00 0.00 0.00 47 1019.5
20260503185056 17 237 3.2 4.8 0.00 0.00 0.00 45 1019.9
20260503184552 16 200 3.2 3.2 0.00 0.00 0.00 47 1019.4
20260503184049 16 245 1.6 1.6 0.00 0.00 0.00 50 1019.6
20260503183545 15 208 0.0 1.6 0.00 0.00 0.00 48 1019.7
20260503183042 16 222 3.2 4.8 0.00 0.00 0.00 46 1019.9
20260503182541 16 254 4.8 4.8 0.00 0.00 0.00 51 1020.1
20260503182039 16 236 3.2 3.2 0.00 0.00 0.00 53 1020.2
20260503181535 15 234 4.8 8.0 0.00 0.00 0.00 53 1020.1
20260503181032 15 260 1.6 3.2 0.00 0.00 0.00 53 1020.2
20260503180529 15 224 3.2 4.8 0.00 0.00 0.00 52 1020.3
20260503180026 15 197 1.6 1.6 0.00 0.00 0.00 53 1020.2
20260503175524 15 235 3.2 4.8 0.00 0.00 0.00 54 1020.3
20260503175020 15 228 1.6 1.6 0.00 0.00 0.00 55 1020.3
20260503174518 15 223 6.4 9.7 0.00 0.00 0.00 54 1020.4
20260503174014 15 233 1.6 3.2 0.00 0.00 0.00 58 1020.3
20260503173509 15 251 1.6 3.2 0.00 0.00 0.00 53 1020.5
20260503173006 15 239 1.6 3.2 0.00 0.00 0.00 51 1020.5
20260503172504 14 218 8.0 11.3 0.00 0.00 0.00 55 1020.5
20260503172000 15 222 6.4 9.7 0.00 0.00 0.00 55 1020.5
20260503171456 14 243 3.2 4.8 0.00 0.00 0.00 56 1020.6
20260503170954 15 231 6.4 8.0 0.00 0.00 0.00 54 1020.9
20260503170450 14 241 1.6 3.2 0.00 0.00 0.00 55 1020.6
20260503150843 11 225 4.8 4.8 0.00 0.00 0.00 76 1021.9
20260503150338 11 224 1.6 1.6 0.00 0.00 0.00 75 1021.7
20260503140303 7 208 0.0 1.6 0.00 0.00 0.00 99 1021.7
20260503131232 6 181 0.0 0.0 0.00 0.00 0.00 99 1021.5
20260503130730 5 213 3.2 4.8 0.00 0.00 0.00 99 1021.4
20260503130227 5 217 1.6 1.6 0.00 0.00 0.00 99 1021.5
20260503120153 5 234 1.6 3.2 0.00 0.00 0.00 99 1020.9
20260503110621 6 224 0.0 0.0 0.00 0.00 0.00 99 1020.1
20260503110118 6 215 0.0 0.0 0.00 0.00 0.00 99 1020.1
20260503090508 5 230 0.0 0.0 0.00 0.00 0.00 99 1019.2
20260503081428 5 230 0.0 0.0 0.00 0.00 0.00 99 1019.4
20260503080926 5 230 0.0 0.0 0.00 0.00 0.00 99 1019.6
20260503080422 5 230 0.0 0.0 0.00 0.00 0.00 99 1019.4
20260503072852 5 230 0.0 0.0 0.00 0.00 0.00 99 1019.1
20260503072349 5 233 0.0 0.0 0.00 0.00 0.00 99 1019.1
20260503071846 5 230 0.0 0.0 0.00 0.00 0.00 99 1019.1
20260503071343 5 230 0.0 0.0 0.00 0.00 0.00 99 1019.1
20260503070838 5 228 0.0 0.0 0.00 0.00 0.00 99 1019.1
20260503070332 5 228 0.0 0.0 0.00 0.00 0.00 99 1018.9
20260503060250 5 228 0.0 0.0 0.00 0.00 0.00 99 1018.9
20260503054737 5 228 0.0 0.0 0.00 0.00 0.00 99 1018.8
20260503054234 5 228 0.0 0.0 0.00 0.00 0.00 99 1019.1
20260503053732 5 228 0.0 0.0 0.00 0.00 0.00 99 1019.1
20260503053230 5 228 0.0 0.0 0.00 0.00 0.00 99 1018.9
20260503052726 5 228 0.0 0.0 0.00 0.00 0.00 99 1018.7
20260503052223 6 228 0.0 0.0 0.00 0.00 0.00 99 1018.7
20260503051718 6 228 0.0 0.0 0.00 0.00 0.00 99 1018.5
20260503051216 6 228 0.0 0.0 0.00 0.00 0.00 99 1018.7
20260503050712 6 228 0.0 0.0 0.00 0.00 0.00 99 1018.6
20260503050209 6 228 0.0 0.0 0.00 0.00 0.00 99 1018.8
20260503045706 6 228 0.0 0.0 0.00 0.10 0.10 99 1018.7
20260503045204 6 228 0.0 0.0 0.00 0.10 0.10 99 1018.5
20260503044700 6 228 0.0 0.0 0.00 0.10 0.10 99 1018.7
20260503044157 6 228 0.0 0.0 0.00 0.10 0.10 99 1018.6
20260503043654 6 228 0.0 0.0 0.00 0.10 0.10 99 1018.5
20260503043152 6 228 0.0 0.0 0.00 0.10 0.10 99 1018.6
20260503042647 6 228 0.0 0.0 0.00 0.10 0.10 99 1018.4
20260503042144 6 228 0.0 0.0 0.00 0.10 0.10 99 1018.3
20260503041640 6 228 0.0 0.0 0.00 0.10 0.10 99 1018.4
20260503041138 7 228 0.0 0.0 0.00 0.10 0.10 99 1018.4
20260503040635 7 228 0.0 0.0 0.00 0.10 0.10 99 1018.3
20260503040133 7 229 0.0 0.0 0.00 0.10 0.10 99 1018.2
20260503035629 7 230 0.0 0.0 0.00 0.10 0.10 99 1018.5
20260503035127 7 228 0.0 0.0 0.00 0.10 0.10 99 1018.2
20260503034624 7 228 0.0 0.0 0.00 0.10 0.10 99 1018.2
20260503034121 7 228 0.0 0.0 0.00 0.10 0.10 99 1018.2
20260503033618 7 228 0.0 0.0 0.00 0.10 0.10 99 1018.2
20260503033116 7 228 0.0 0.0 0.00 0.10 0.10 99 1018.3
20260503032614 7 230 0.0 0.0 0.00 0.10 0.10 99 1018.1
20260503032112 7 230 0.0 0.0 0.00 0.10 0.10 99 1018.3
20260503031610 7 230 0.0 0.0 0.00 0.10 0.10 99 1018.2
20260503031107 7 230 0.0 0.0 0.00 0.10 0.10 99 1018.1
20260503030603 7 230 0.0 0.0 0.00 0.10 0.10 99 1018.2
20260503030100 7 230 0.0 0.0 0.00 0.10 0.10 99 1018.1
20260503025556 7 228 0.0 0.0 0.00 0.10 0.10 99 1018.1
20260503025054 7 226 0.0 0.0 0.00 0.10 0.10 99 1018.4
20260503024550 7 226 0.0 0.0 0.00 0.10 0.10 99 1018.4
20260503024048 7 225 0.0 0.0 0.00 0.10 0.10 99 1018.3
20260503023544 7 225 0.0 0.0 0.00 0.10 0.10 99 1018.1
20260503023042 7 222 0.0 0.0 0.00 0.10 0.10 99 1018.1
20260503022537 7 228 0.0 0.0 0.00 0.10 0.10 99 1018.0
20260503022032 7 225 0.0 0.0 0.00 0.10 0.10 99 1017.9
20260503021529 7 241 0.0 0.0 0.00 0.10 0.10 99 1017.9
20260503021026 7 228 0.0 0.0 0.00 0.10 0.10 99 1018.0
20260503020524 7 221 0.0 0.0 0.00 0.10 0.10 99 1018.1
20260503020020 7 261 1.6 1.6 0.00 0.10 0.10 99 1018.1
20260503015517 7 199 0.0 0.0 0.00 0.10 0.10 99 1017.7
20260503015014 7 236 0.0 1.6 0.00 0.10 0.10 98 1017.8